Tracking 27405 objects as of 2-Jun-2023
HD Live streaming from Space Station
objects crossing your sky now

COSMOS 1375 DEB

Track COSMOS 1375 DEB now!
10-day predictions


NORAD ID: 17807
Int'l Code: 1982-055AZ
Perigee: 933.1 km
Apogee: 1,009.7 km
Inclination: 65.8 °
Period: 104.4 minutes
Semi major axis: 7342 km
RCS: 0.033 m2 (small)
Launch date: June 6, 1982
Source: Commonwealth of Independent States (former USSR) (CIS)
Launch site: PLESETSK MISSILE AND SPACE COMPLEX (PKMTR)

Note: This is SATELLITE DEBRIS
Your satellite tracking list
Your tracking list is empty




NASA's NSSDC Master Catalog

Two Line Element Set (TLE):
1 17807U 82055AZ  23152.90402353  .00000834  00000-0  87350-3 0  9993
2 17807  65.8326 357.9777 0052181 162.3133 310.4263 13.79890551886005
Source of the keplerian elements: AFSPC